Tracking 32932 objects as of 15-Jan-2026
HD Live streaming from Space Station
objects crossing your sky now

CSTP-1.1

Track CSTP-1.1 now!
10-day predictions
CSTP-1.1 is classified as:


NORAD ID: 57202
Int'l Code: 2023-091AN
Perigee: 515.3 km
Apogee: 526.8 km
Inclination: 97.5 °
Period: 94.9 minutes
Semi major axis: 6892 km
RCS: Unknown
Launch date: June 27, 2023
Source: (TBD)
Launch site: VOSTOCHNY COSMODROME (VOSTO)

Uplink (MHz):
Downlink (MHz): 436.075
Beacon (MHz):
Mode: LoRa
Call sign:
Status: Active

Your satellite tracking list
Your tracking list is empty




NASA's NSSDC Master Catalog

Two Line Element Set (TLE):
1 57202U 23091AN  26014.58439400  .00003498  00000-0  17870-3 0  9997
2 57202  97.5362  74.2538 0008320 286.1624  73.8694 15.17331509140659
Source of the keplerian elements: AFSPC